Location: Ferchesar
(52.6477°N, 12.4298°E)
Time: 13:04:09
(UTC+01:00)

Altair - Pass Details

Date: 14 December 2021
Orbit: 1501 x 1683 km, 47.2° (Epoch: 20 January)

Event Time Altitude Azimuth Distance (km) Brightness Sun altitude
Rises 20:25:35 0° 284° (WNW) 4,698 11.0 -39.4°
Reaches altitude 10° 20:30:15 10° 264° (W) 3,685 10.1 -40.1°
Maximum altitude 20:35:06 16° 232° (SW) 3,235 9.4 -40.8°
Drops below altitude 10° 20:39:54 10° 199° (SSW) 3,646 9.5 -41.5°
Enters shadow 20:40:24 - 197° (SSW) 3,730 9.5 -41.5°
